Wind_Speed
11 10 11 7 5 9 4 2 10 4 8 8 7 7 7 7 6 4 9 12 3 14 15 14 14 14 13 14 14 15 14 15 11 11 12 14 1 10 8 16 19 21 26
11 12 10 4 7 10 6 5 6 9 6 6 7 7 7 10 11 9 7 13 15 13 12 10 14 15 15 15 13 13 13 12 8 10 11 10 12 13 11 14 13 19 23
10 7 8 5 1 1 5 7 8 8 10 8 4 7 11 16 14 3 7 10 14 13 15 21 11 14 15 15 13 13 11 12 13 11 12 13 14 14 16 15 17 13 19
9 11 8 6 6 3 2 0 7 10 10 10 6 10 6 5 13 17 10 13 12 16 18 16 13 13 13 14 15 16 12 10 11 11 12 14 14 14 14 15 16 16 12
13 12 11 4 4 5 3 4 10 10 9 7 8 6 8 9 7 9 15 18 17 15 12 20 16 15 15 12 12 13 13 12 13 13 14 14 15 14 14 13 14 10 1
14 12 9 6 6 6 3 4 8 9 8 7 8 5 16 9 14 17 14 14 22 20 14 14 12 6 17 10 8 9 13 13 13 14 16 16 16 15 15 10 5 5 6
14 11 8 6 7 6 4 6 6 5 7 9 8 9 10 13 9 15 20 20 15 20 14 11 15 16 20 17 11 10 10 11 12 14 15 16 16 15 15 12 5 7 5
14 10 7 6 7 5 4 5 6 5 8 9 9 10 8 13 17 16 20 11 17 17 19 10 15 12 13 10 9 10 11 11 12 11 13 15 15 13 12 11 9 7 7
13 11 9 9 7 4 3 3 6 9 8 10 14 12 8 8 9 12 15 16 17 19 13 11 11 11 11 10 8 11 12 12 12 12 13 13 13 13 11 10 9 9 9
13 10 12 10 6 5 2 4 8 8 7 9 13 7 7 8 7 5 2 12 15 18 16 17 14 12 13 12 13 15 15 15 16 16 16 16 15 12 11 13 12 11 9
12 12 12 8 7 5 4 5 5 9 10 12 10 9 7 8 8 3 4 13 13 14 15 16 18 14 13 15 16 19 19 20 19 19 19 17 17 16 14 12 11 13 13
13 12 12 8 6 5 6 8 11 10 11 12 11 10 9 8 8 7 3 10 9 8 18 19 17 16 14 14 20 21 21 20 20 20 19 18 17 16 15 14 12 11 12
16 14 11 9 6 5 7 7 11 12 10 11 9 7 7 7 6 7 3 3 8 11 14 18 18 20 20 20 19 20 18 17 16 16 17 17 17 18 18 18 16 14 11
16 13 11 7 6 7 8 11 11 10 9 8 4 5 6 6 5 4 3 3 7 7 12 17 22 23 18 15 14 14 15 16 17 17 18 19 19 18 19 18 18 17 15
12 11 8 6 5 7 10 12 10 8 5 6 3 4 4 5 5 6 6 6 8 12 15 20 17 14 15 15 14 15 14 15 16 17 18 18 19 19 19 19 19 19 18
9 7 8 6 7 10 11 11 5 5 5 5 3 2 4 6 7 7 8 6 8 12 16 14 11 10 13 15 17 18 18 15 17 19 19 20 20 21 20 18 17 16 16
12 5 4 6 11 10 7 6 4 4 4 4 3 4 5 7 7 8 9 9 9 10 13 10 9 10 11 13 14 14 16 20 20 19 20 21 21 22 22 18 16 16 16
6 5 7 8 8 7 6 5 5 3 5 6 5 4 6 7 8 8 9 9 8 8 9 11 14 10 12 12 13 17 20 20 20 23 25 25 22 21 19 16 16 16 15
7 6 5 6 8 6 5 4 3 4 5 5 4 4 6 6 8 9 8 6 6 8 10 11 11 13 12 13 15 17 19 23 22 23 23 28 26 24 22 19 19 19 19
5 6 8 7 6 6 3 4 3 5 4 4 4 4 5 6 7 7 6 5 6 8 10 12 12 12 13 14 15 16 16 18 22 20 25 23 25 26 24 27 30 28 24
5 6 7 7 7 5 4 3 4 4 4 3 4 4 5 6 7 6 6 6 8 9 10 12 13 13 14 14 15 16 17 20 20 14 16 24 23 25 28 28 27 27 27
5 7 8 10 5 4 3 4 4 3 4 4 4 5 6 7 7 7 7 8 8 10 11 12 14 14 15 15 16 17 17 17 16 11 13 17 15 20 27 27 29 33 31
7 7 7 5 4 3 4 3 2 4 5 4 5 5 6 7 8 8 9 10 11 11 12 13 14 14 14 15 15 17 17 16 17 15 15 16 18 18 22 23 28 31 32
5 6 6 4 5 5 3 2 2 3 4 3 4 6 8 8 7 8 9 10 11 12 12 13 14 15 15 15 15 15 16 18 17 13 15 16 18 20 21 22 25 27 31
7 6 6 6 5 3 2 2 2 2 1 3 5 6 6 8 9 10 12 13 13 14 14 14 14 15 15 15 15 16 17 16 17 15 18 20 21 20 19 22 20 22 30
7 7 7 6 3 2 2 2 0 1 2 4 5 6 8 10 11 13 14 15 16 18 16 16 14 12 12 11 14 16 16 15 16 18 18 20 22 22 18 16 17 25 29
Wind_Direction
206 178 169 202 137 79 242 241 308 12 5 342 12 11 1 343 19 318 342 325 326 354 353 351 342 337 343 352 354 0 360 352 350 345 338 338 48 330 321 293 256 248 240
179 190 146 210 187 178 209 241 308 324 318 336 11 28 44 32 2 32 10 344 2 15 357 3 349 341 342 352 354 359 7 16 12 352 346 342 337 321 334 335 310 250 241
198 210 173 168 228 202 39 315 324 312 333 357 337 28 341 284 14 338 47 342 4 10 324 333 2 342 341 347 356 1 359 6 13 2 349 341 336 330 315 322 319 304 248
212 210 181 259 181 222 319 339 296 351 341 2 4 29 325 19 0 327 14 1 11 343 349 356 348 333 341 350 0 7 5 6 13 24 15 2 353 344 331 322 317 334 282
214 217 228 226 228 251 278 335 2 350 341 345 352 23 344 327 343 327 351 355 353 357 1 350 339 333 351 0 354 19 25 45 42 34 25 14 10 4 358 345 340 342 160
209 220 228 225 245 262 311 330 349 349 340 339 5 342 320 58 332 352 353 2 350 3 336 337 317 326 349 37 47 35 37 38 37 25 20 15 13 12 10 26 62 60 96
200 213 227 239 256 264 292 335 346 355 353 3 353 353 342 313 21 15 6 29 10 5 344 1 10 360 358 46 55 32 11 2 359 0 9 7 7 9 8 15 20 20 48
200 205 230 244 252 271 294 324 338 340 333 326 330 333 320 341 356 358 5 22 25 359 359 356 329 18 16 21 14 6 353 350 355 359 358 359 359 0 6 2 8 349 350
204 210 231 243 249 263 287 336 325 316 328 329 327 304 346 357 6 2 358 340 352 341 5 350 344 340 4 358 356 343 343 348 346 340 342 348 351 349 349 347 350 339 330
192 213 227 242 247 252 279 315 315 324 331 330 341 354 329 340 14 25 309 343 336 331 354 337 340 354 355 347 343 342 340 335 331 331 335 334 334 333 329 326 329 329 323
204 216 212 229 239 247 286 284 328 322 325 319 326 322 322 323 338 48 359 313 316 314 340 338 333 345 346 341 337 331 327 326 325 324 322 323 326 324 317 308 305 309 315
205 205 212 229 230 249 280 270 307 315 314 312 311 308 313 314 317 322 278 279 295 303 322 332 320 326 321 321 320 319 319 320 321 327 332 337 334 332 328 329 326 316 294
206 211 218 229 237 248 280 294 305 311 312 312 305 313 304 312 314 329 350 260 275 305 310 322 321 328 325 322 320 323 331 337 342 343 349 348 345 344 341 340 338 332 322
212 213 218 235 229 260 297 305 303 313 319 307 321 301 320 345 325 319 328 286 288 300 298 301 313 327 327 336 342 349 347 347 348 349 349 351 346 344 341 337 334 330 324
194 207 220 221 240 273 302 301 307 308 312 298 311 318 338 337 327 321 321 302 293 289 293 307 328 327 337 341 343 347 355 351 351 353 351 346 346 344 342 339 336 332 327
175 180 196 225 266 284 291 297 298 309 295 308 305 337 326 316 312 314 316 323 305 284 289 322 339 343 339 343 349 347 347 355 357 352 352 351 351 351 350 346 341 334 327
174 215 234 263 282 284 276 278 291 280 293 296 309 324 312 308 317 328 330 333 310 300 310 325 338 349 346 341 344 344 337 348 356 351 347 347 348 351 351 349 347 346 341
207 231 270 273 272 253 244 265 265 296 297 294 306 313 325 320 329 330 328 316 312 308 311 326 337 353 349 347 342 345 349 352 343 343 340 341 350 2 357 359 358 351 345
236 264 271 268 242 238 240 256 279 284 276 279 304 336 318 323 325 327 321 313 318 314 328 331 338 344 344 339 338 338 338 337 341 341 343 343 349 351 348 6 2 354 348
254 247 244 235 238 235 228 247 267 263 267 290 311 321 319 333 332 323 326 331 330 334 333 336 340 335 333 336 337 337 336 339 342 348 345 343 348 350 355 353 353 353 353
234 229 230 230 221 212 214 220 235 252 281 306 321 325 335 342 336 334 331 337 344 339 333 331 328 333 331 336 332 335 337 338 348 347 344 347 343 338 344 350 348 346 349
221 220 220 217 190 190 209 226 247 293 313 322 328 341 345 347 346 346 339 337 336 335 326 324 325 331 332 332 336 339 342 339 336 352 358 359 343 329 335 338 335 341 347
213 217 216 196 180 195 220 239 302 328 323 336 346 350 351 357 353 347 343 342 332 326 322 324 326 328 330 333 334 341 341 342 344 358 357 353 347 336 329 327 330 338 339
222 217 209 189 201 216 236 282 331 328 336 347 341 357 9 2 357 348 342 336 331 327 326 326 327 327 333 338 342 339 340 340 353 357 350 352 351 347 334 327 328 332 335
221 213 206 204 212 227 263 298 310 321 333 346 355 6 4 7 359 353 349 342 335 331 328 329 329 335 342 341 341 345 351 347 343 353 351 352 352 349 337 329 335 331 321
219 211 213 207 217 232 262 259 275 319 333 2 10 11 14 7 358 352 346 343 342 340 335 330 326 327 330 336 341 347 349 347 347 351 351 347 344 343 344 335 313 316 322
Height
3224 3227 3228 3229 3230 3230 3230 3227 3229 3228 3226 3225 3223 3222 3219 3217 3213 3212 3212 3211 3208 3212 3211 3211 3209 3207 3203 3200 3197 3195 3193 3192 3192 3192 3190 3185 3189 3190 3186 3184 3184 3184 3185
3224 3225 3227 3228 3228 3228 3229 3229 3228 3227 3225 3223 3222 3219 3218 3215 3216 3216 3218 3215 3211 3210 3209 3208 3208 3207 3205 3203 3200 3196 3193 3191 3190 3191 3190 3189 3188 3187 3185 3183 3179 3179 3182
3224 3226 3228 3228 3227 3229 3228 3227 3227 3226 3224 3222 3220 3219 3222 3214 3221 3219 3212 3217 3214 3209 3205 3205 3204 3207 3207 3204 3201 3198 3194 3193 3190 3190 3190 3188 3186 3184 3183 3181 3178 3175 3175
3223 3225 3226 3227 3228 3227 3226 3226 3224 3225 3224 3222 3220 3221 3220 3208 3217 3221 3210 3216 3214 3206 3206 3206 3206 3207 3207 3206 3203 3199 3195 3193 3191 3189 3189 3187 3185 3183 3180 3178 3174 3173 3172
3222 3224 3226 3226 3227 3227 3226 3225 3225 3225 3224 3222 3219 3219 3218 3212 3217 3214 3211 3211 3210 3207 3204 3207 3205 3207 3204 3203 3201 3198 3197 3194 3191 3189 3189 3187 3185 3182 3179 3176 3173 3173 3170
3221 3224 3225 3225 3226 3226 3225 3225 3225 3225 3224 3222 3219 3216 3211 3197 3212 3208 3209 3207 3208 3209 3208 3207 3200 3193 3198 3197 3193 3197 3197 3196 3192 3190 3188 3187 3185 3182 3179 3176 3174 3174 3172
3219 3223 3224 3225 3226 3225 3224 3224 3225 3224 3224 3222 3221 3218 3215 3211 3211 3212 3210 3205 3210 3209 3206 3203 3198 3195 3199 3197 3196 3196 3197 3196 3194 3192 3189 3187 3185 3183 3180 3178 3176 3175 3174
3219 3221 3223 3225 3225 3225 3225 3224 3224 3224 3224 3222 3221 3219 3218 3215 3212 3212 3211 3209 3209 3206 3207 3203 3200 3201 3200 3199 3198 3198 3198 3196 3193 3191 3189 3188 3185 3184 3182 3179 3177 3175 3174
3217 3220 3223 3224 3224 3225 3224 3224 3223 3222 3223 3221 3220 3219 3215 3216 3215 3213 3210 3209 3210 3209 3209 3206 3204 3203 3202 3201 3200 3200 3198 3195 3193 3191 3189 3187 3185 3183 3181 3179 3178 3175 3174
3217 3219 3222 3222 3224 3224 3224 3223 3223 3222 3222 3220 3219 3217 3216 3216 3216 3216 3213 3209 3209 3210 3208 3205 3204 3202 3202 3200 3199 3197 3196 3194 3191 3189 3187 3186 3184 3183 3180 3178 3175 3174 3173
3216 3218 3220 3222 3222 3223 3223 3223 3223 3222 3220 3219 3218 3216 3216 3215 3214 3215 3213 3212 3210 3210 3207 3206 3203 3201 3200 3198 3196 3194 3192 3190 3188 3185 3184 3182 3180 3178 3177 3175 3174 3172 3170
3215 3216 3219 3220 3221 3222 3222 3222 3222 3221 3218 3217 3216 3215 3214 3213 3213 3212 3213 3211 3211 3209 3206 3204 3201 3200 3198 3197 3194 3191 3189 3186 3184 3183 3180 3178 3176 3174 3172 3170 3170 3169 3168
3213 3215 3218 3219 3220 3221 3220 3221 3220 3218 3217 3215 3214 3214 3213 3211 3211 3211 3211 3210 3209 3208 3205 3202 3200 3198 3196 3194 3191 3189 3187 3185 3183 3180 3177 3175 3173 3171 3169 3167 3165 3163 3162
3211 3214 3216 3218 3219 3220 3220 3219 3217 3216 3215 3214 3214 3211 3211 3211 3210 3210 3210 3209 3208 3206 3203 3200 3198 3196 3193 3192 3189 3188 3185 3183 3181 3179 3176 3173 3172 3169 3167 3164 3162 3160 3158
3210 3213 3215 3217 3218 3219 3217 3216 3216 3215 3213 3213 3213 3211 3211 3210 3210 3209 3207 3206 3205 3203 3201 3199 3197 3194 3192 3189 3188 3187 3185 3182 3179 3177 3175 3173 3170 3168 3165 3162 3160 3157 3154
3210 3212 3213 3216 3216 3215 3214 3213 3214 3213 3213 3213 3212 3211 3210 3209 3209 3207 3206 3206 3204 3201 3198 3197 3195 3194 3191 3189 3187 3185 3182 3181 3178 3175 3173 3171 3168 3165 3163 3160 3157 3154 3152
3209 3211 3213 3214 3213 3213 3212 3212 3211 3211 3211 3212 3212 3211 3210 3209 3209 3207 3206 3204 3201 3199 3197 3197 3196 3195 3192 3188 3186 3183 3181 3177 3175 3174 3172 3169 3166 3163 3160 3157 3154 3152 3149
3208 3210 3211 3211 3212 3212 3211 3210 3211 3211 3212 3213 3212 3210 3210 3209 3208 3206 3204 3202 3200 3199 3197 3196 3194 3194 3192 3189 3185 3180 3173 3174 3174 3172 3168 3164 3163 3162 3159 3156 3152 3149 3147
3208 3208 3209 3209 3211 3210 3209 3210 3211 3212 3212 3211 3210 3209 3209 3208 3206 3205 3203 3201 3200 3198 3197 3196 3195 3193 3190 3187 3184 3181 3179 3174 3171 3169 3167 3162 3160 3158 3156 3153 3151 3147 3143
3206 3207 3207 3208 3209 3209 3209 3210 3211 3211 3211 3210 3208 3208 3208 3207 3205 3203 3202 3201 3200 3198 3196 3195 3192 3190 3187 3185 3183 3181 3178 3176 3172 3165 3160 3158 3155 3154 3153 3148 3143 3142 3139
3205 3205 3206 3207 3208 3209 3209 3210 3209 3209 3210 3209 3207 3207 3207 3205 3203 3203 3202 3201 3199 3197 3196 3193 3191 3189 3187 3185 3182 3180 3177 3173 3172 3167 3163 3157 3152 3150 3148 3145 3142 3140 3136
3204 3205 3207 3207 3208 3207 3208 3208 3209 3209 3209 3208 3207 3206 3205 3204 3204 3203 3202 3200 3198 3197 3194 3192 3190 3188 3185 3183 3180 3178 3176 3172 3169 3167 3163 3160 3156 3148 3144 3141 3138 3134 3130
3203 3205 3206 3206 3205 3206 3207 3208 3209 3209 3209 3207 3206 3206 3205 3204 3203 3202 3201 3199 3197 3195 3193 3191 3189 3185 3183 3181 3178 3174 3171 3169 3165 3163 3161 3159 3156 3151 3145 3141 3136 3131 3126
3202 3203 3204 3204 3205 3206 3208 3208 3208 3207 3207 3207 3206 3205 3205 3204 3202 3201 3200 3198 3197 3195 3192 3189 3186 3183 3181 3179 3176 3174 3170 3164 3165 3161 3159 3157 3153 3149 3142 3137 3132 3128 3124
3201 3202 3203 3204 3205 3207 3207 3207 3207 3207 3206 3206 3205 3205 3204 3203 3202 3200 3199 3197 3195 3192 3189 3186 3183 3181 3179 3176 3174 3171 3168 3166 3163 3160 3156 3153 3152 3149 3144 3136 3133 3127 3121
3199 3200 3202 3203 3205 3206 3207 3206 3206 3206 3205 3206 3207 3206 3205 3203 3201 3200 3198 3196 3193 3191 3188 3184 3183 3181 3178 3175 3172 3169 3167 3164 3161 3158 3155 3152 3148 3144 3142 3134 3128 3124 3120